Location: Wanzleben
(52.0609°N, 11.4408°E)
Time: 10:43:04
(UTC+00:00)

USA 234 - Pass Details

Date: 18 September 2020
Orbit: 1102 x 1106 km, 123.0° (Epoch: 16 October)

Event Time Altitude Azimuth Distance (km) Brightness Sun altitude
Rises 18:32:30 0° 60° (ENE) 3,928 5.8 -11.6°
Reaches altitude 10° 18:35:25 10° 72° (ENE) 2,967 5.1 -12.0°
Maximum altitude 18:40:55 28° 129° (SE) 1,930 4.0 -12.8°
Drops below altitude 10° 18:46:24 10° 187° (S) 2,957 5.4 -13.6°
Sets 18:49:17 0° 198° (SSW) 3,912 6.1 -14.0°
